25 septembre 2022

Temps Code Temps Temp. Vue Base cloud Vent METAR/SPECI
22:30
V
14 °C 10 km+ - 310° 310° 4 kt METAR LFBO 252030Z AUTO 31004KT CAVOK 14/09 Q1017 NOSIG
22:00
V
15 °C 10 km+ - 300° 300° 3 kt METAR LFBO 252000Z AUTO 30003KT CAVOK 15/09 Q1017 NOSIG
21:30
V
15 °C 10 km+ - 310° 310° 4 kt METAR LFBO 251930Z AUTO 31004KT CAVOK 15/09 Q1016 NOSIG
21:00
V
16 °C 10 km+ - 350° 350° 4 kt METAR LFBO 251900Z AUTO 35004KT CAVOK 16/10 Q1016 NOSIG
20:30
V
17 °C 10 km+ - 360° 360° 5 kt METAR LFBO 251830Z AUTO 36005KT 340V040 CAVOK 17/10 Q1016 NOSIG
20:00
V
17 °C 10 km+ - 360° 360° 4 kt METAR LFBO 251800Z AUTO 36004KT CAVOK 17/09 Q1015 NOSIG
19:30
V
18 °C 10 km+ - 340° 340° 7 kt METAR LFBO 251730Z AUTO 34007KT CAVOK 18/08 Q1015 NOSIG
19:00
V
19 °C 10 km+ - 350° 350° 8 kt METAR LFBO 251700Z AUTO 35008KT CAVOK 19/08 Q1015 NOSIG
18:30
V
19 °C 10 km+ - 330° 330° 8 kt METAR LFBO 251630Z AUTO 33008KT CAVOK 19/08 Q1015 NOSIG
18:00
V
20 °C 10 km+ - 350° 350° 8 kt METAR LFBO 251600Z AUTO 35008KT CAVOK 20/09 Q1015 NOSIG
17:30
V
20 °C 10 km+ - 310° 310° 7 kt METAR LFBO 251530Z AUTO 31007KT 280V360 9999 FEW041 SCT070 20/09 Q1015 NOSIG
17:00
V
20 °C 10 km+ - 340° 340° 6 kt METAR LFBO 251500Z AUTO 34006KT 260V020 9999 FEW011 20/09 Q1015 NOSIG
16:30
V
20 °C 10 km+ 7.400 ft 340° 340° 8 kt METAR LFBO 251430Z AUTO 34008KT 300V030 9999 SCT038 BKN074 20/09 Q1015 NOSIG
16:00
V
19 °C 10 km+ 7.400 ft 340° 340° 7 kt METAR LFBO 251400Z AUTO 34007KT 290V010 9999 FEW037 BKN074 BKN200 19/09 Q1015 NOSIG
15:30
V
19 °C 10 km+ 6.000 ft 330° 330° 8 kt METAR LFBO 251330Z AUTO 33008KT 260V010 9999 SCT039 BKN060 BKN072 19/09 Q1015 NOSIG
15:00
V
19 °C 10 km+ - 330° 330° 8 kt METAR LFBO 251300Z AUTO 33008KT 300V010 9999 FEW028 SCT070 19/10 Q1016 NOSIG
14:30
V
19 °C 10 km+ - 320° 320° 7 kt METAR LFBO 251230Z AUTO 32007KT 280V030 9999 FEW032 SCT070 19/11 Q1016 NOSIG
14:00
V
17 °C 10 km+ 6.600 ft 330° 330° 7 kt METAR LFBO 251200Z AUTO 33007KT 9999 FEW026 BKN066 17/10 Q1016 NOSIG
13:30
V
17 °C 10 km+ 4.400 ft 340° 340° 8 kt METAR LFBO 251130Z AUTO 34008KT 310V020 9999 FEW026 SCT035 BKN044 17/10 Q1016 NOSIG
13:00
M
17 °C 10 km+ 2.300 ft 330° 330° 8 kt METAR LFBO 251100Z AUTO 33008KT 300V010 9999 BKN023 BKN034 BKN058 17/11 Q1016 NOSIG
12:30
M
18 °C 10 km+ 2.000 ft 300° 300° 9 kt METAR LFBO 251030Z AUTO 30009KT 260V330 9999 BKN020 BKN046 BKN064 18/11 Q1016 NOSIG
12:00
M
17 °C 10 km+ 1.700 ft 290° 290° 8 kt METAR LFBO 251000Z AUTO 29008KT 260V320 9999 BKN017 BKN022 17/11 Q1016 NOSIG
11:30
M
15 °C 10 km+ 1.400 ft 290° 290° 9 kt METAR LFBO 250930Z AUTO 29009KT 260V320 9999 BKN014 BKN050 15/11 Q1016 BECMG SCT030
11:00
M
15 °C 10 km+ 1.300 ft 290° 290° 9 kt METAR LFBO 250900Z AUTO 29009KT 9999 OVC013 15/11 Q1016 BECMG SCT030
10:30
I
14 °C 10 km+ 900 ft 300° 300° 6 kt METAR LFBO 250830Z AUTO 30006KT 250V330 9999 BKN009 BKN013 14/11 Q1016 BECMG SCT030
10:00
I
13 °C 10 km+ 900 ft 290° 290° 5 kt METAR LFBO 250800Z AUTO 29005KT 230V330 9999 BKN009 13/11 Q1016 BECMG SCT030
09:30
I
12 °C 10 km+ 800 ft 270° 270° 4 kt METAR LFBO 250730Z AUTO 27004KT 240V320 9999 OVC008 12/11 Q1016 BECMG SCT030
09:00
I
12 °C 10 km+ 700 ft 280° 280° 3 kt METAR LFBO 250700Z AUTO 28003KT 230V310 9999 OVC007 12/11 Q1016 BECMG FEW009 SCT025
08:30
I
12 °C 10 km+ 700 ft 290° 290° 4 kt METAR LFBO 250630Z AUTO 29004KT 9999 BKN007 OVC025 12/11 Q1016 BECMG FEW009 SCT025
08:00
I
12 °C 10 km+ 600 ft 330° 330° 6 kt METAR LFBO 250600Z AUTO 33006KT 9999 BKN006 12/11 Q1016 NOSIG
07:30
V
11 °C 10 km+ - 260° 260° 3 kt METAR LFBO 250530Z AUTO 26003KT 220V290 9999 FEW008 11/10 Q1015 TEMPO BKN012
07:00
V
11 °C 10 km+ - 300° 300° 4 kt METAR LFBO 250500Z AUTO 30004KT 270V350 9999 FEW009 11/10 Q1015 TEMPO BKN008
06:30
V
11 °C 10 km+ - Var Var 2 kt METAR LFBO 250430Z AUTO VRB02KT 9999 SCT009 11/10 Q1015 TEMPO BKN008
06:00
V
11 °C 10 km+ - Var Var 2 kt METAR LFBO 250400Z AUTO VRB02KT 9999 FEW010 11/10 Q1015 TEMPO BKN008
05:30
V
11 °C 10 km+ - 190° 190° 4 kt METAR LFBO 250330Z AUTO 19004KT 9999 FEW010 11/10 Q1015 TEMPO BKN008
05:00
V
11 °C 10 km+ - 220° 220° 5 kt METAR LFBO 250300Z AUTO 22005KT CAVOK 11/10 Q1015 TEMPO BKN008
04:30
V
12 °C 10 km+ - 180° 180° 5 kt METAR LFBO 250230Z AUTO 18005KT 9999 FEW021 12/11 Q1015 TEMPO BKN008
04:00
V
12 °C 10 km+ - 210° 210° 5 kt METAR LFBO 250200Z AUTO 21005KT CAVOK 12/11 Q1015 TEMPO BKN008
03:30
V
13 °C 10 km+ - 230° 230° 6 kt METAR LFBO 250130Z AUTO 23006KT CAVOK 13/11 Q1015 TEMPO BKN008
03:00
V
13 °C 10 km+ - 240° 240° 6 kt METAR LFBO 250100Z AUTO 24006KT CAVOK 13/11 Q1015 TEMPO BKN012
02:30
V
13 °C 10 km+ - 230° 230° 7 kt METAR LFBO 250030Z AUTO 23007KT CAVOK 13/11 Q1016 TEMPO BKN012
02:00
V
14 °C 10 km+ - 260° 260° 9 kt METAR LFBO 250000Z AUTO 26009KT CAVOK 14/12 Q1015 TEMPO BKN012
01:30
V
14 °C 10 km+ - 270° 270° 10 kt METAR LFBO 242330Z AUTO 27010KT CAVOK 14/12 Q1015 NOSIG
01:00
V
14 °C 10 km+ - 270° 270° 10 kt METAR LFBO 242300Z AUTO 27010KT CAVOK 14/11 Q1015 NOSIG
00:30
V
15 °C 10 km+ - 260° 260° 12 kt METAR LFBO 242230Z AUTO 26012KT CAVOK 15/12 Q1016 NOSIG
00:00
V
15 °C 10 km+ - 260° 260° 10 kt METAR LFBO 242200Z AUTO 26010KT CAVOK 15/12 Q1015 NOSIG

24 septembre 2022

Temps Code Temps Temp. Vue Base cloud Vent METAR/SPECI
23:30
V
14 °C 10 km+ - 250° 250° 6 kt METAR LFBO 242130Z AUTO 25006KT CAVOK 14/11 Q1016 NOSIG
23:00
V
15 °C 10 km+ - 240° 240° 8 kt METAR LFBO 242100Z AUTO 24008KT CAVOK 15/12 Q1016 BECMG 30010KT
22:30
V
15 °C 10 km+ - 230° 230° 9 kt METAR LFBO 242030Z AUTO 23009KT 9999 FEW029/// SCT078/// //////TCU 15/12 Q1016 BECMG 30010KT SCT020 BKN080
22:00
V
15 °C 10 km+ 11.000 ft 230° 230° 9 kt METAR LFBO 242000Z AUTO 23009KT 220V280 9999 FEW033 BKN110 15/12 Q1016 TEMPO 4000 -SHRA BKN030TCU
21:30
V
16 °C 10 km+ - 240° 240° 9 kt METAR LFBO 241930Z AUTO 24009KT CAVOK 16/12 Q1016 TEMPO 4000 -SHRA BKN030TCU BECMG 30010KT
21:00
V
17 °C 10 km+ - 220° 220° 7 kt METAR LFBO 241900Z AUTO 22007KT 9999 //////TCU 17/12 Q1015 TEMPO 4000 -SHRA BECMG 30010KT
20:30
V
17 °C 10 km+ - 260° 260° 10 kt METAR LFBO 241830Z AUTO 26010KT 9999 ///TCU 17/12 Q1015 TEMPO 4000 -SHRA
20:00
V
17 °C 10 km+ - 250° 250° 9 kt METAR LFBO 241800Z AUTO 25009KT 9999 //////TCU 17/12 Q1015 TEMPO 4000 -SHRA
19:30
V
17 °C 10 km+ 10.000 ft 240° 240° 8 kt METAR LFBO 241730Z AUTO 24008KT 9999 FEW027 BKN100 OVC130 17/12 Q1015 TEMPO 4000 -SHRA BKN030TCU BECMG 30010KT
19:00
V
17 °C 10 km+ - 250° 250° 9 kt METAR LFBO 241700Z AUTO 25009KT 210V270 CAVOK 17/12 Q1014 TEMPO 4000 -SHRA BKN030TCU
18:30
V
17 °C 10 km+ - 250° 250° 8 kt METAR LFBO 241630Z AUTO 25008KT 210V270 9999 //////TCU 17/11 Q1014 TEMPO 4000 -SHRA
18:00
V
17 °C 10 km+ 7.400 ft 260° 260° 6 kt METAR LFBO 241600Z AUTO 26006KT 220V300 9999 FEW023/// OVC074/// //////TCU 17/11 Q1014 TEMPO 4000 -SHRA
17:30
V
17 °C 10 km+ 7.800 ft 300° 300° 9 kt METAR LFBO 241530Z AUTO 30009KT 9999 FEW022/// OVC078/// //////CB 17/12 Q1014 TEMPO 4000 -SHRA
17:00
V
18 °C 10 km+ - 310° 310° 11 kt METAR LFBO 241500Z AUTO 31011KT 9999 //////TCU 18/11 Q1014 TEMPO 4000 -SHRA
16:30
V
19 °C 10 km+ 8.800 ft 320° 320° 16 kt METAR LFBO 241430Z AUTO 32016KT 9999 FEW026 BKN088 19/12 Q1014 TEMPO 4000 -SHRA BKN030TCU
16:00
V
20 °C 10 km+ 9.200 ft 330° 330° 14 kt METAR LFBO 241400Z AUTO 33014KT 9999 FEW030 BKN092 20/11 Q1014 TEMPO 4000 -SHRA BKN030TCU
15:30
V
20 °C 10 km+ 10.000 ft 290° 290° 10 kt METAR LFBO 241330Z AUTO 29010KT 9999 FEW025 BKN100 BKN130 20/12 Q1014 TEMPO 4000 -SHRA BKN030TCU
15:00
V
20 °C 10 km+ 6.600 ft 300° 300° 12 kt METAR LFBO 241300Z AUTO 30012KT 9999 SCT024 SCT054 BKN066 20/13 Q1014 TEMPO 4000 -SHRA BKN030TCU
14:30
V
20 °C 10 km+ 6.200 ft 290° 290° 12 kt METAR LFBO 241230Z AUTO 29012KT 9999 FEW027 SCT052 BKN062 20/13 Q1015 TEMPO 4000 -SHRA BKN030TCU
14:00
V
20 °C 10 km+ 9.400 ft 290° 290° 12 kt METAR LFBO 241200Z AUTO 29012KT 9999 FEW028 BKN094 BKN110 20/12 Q1015 TEMPO 4000 -SHRA BKN030TCU
13:30
M
20 °C 10 km+ 2.700 ft 290° 290° 11 kt METAR LFBO 241130Z AUTO 29011KT 260V320 9999 BKN027 BKN048 BKN110 20/12 Q1015 TEMPO SCT040TCU
13:00
V
20 °C 10 km+ 4.400 ft 290° 290° 7 kt METAR LFBO 241100Z AUTO 29007KT 250V320 9999 FEW024/// SCT037/// BKN044/// ///TCU 20/14 Q1015 NOSIG
12:30
V
19 °C 10 km+ 4.100 ft 260° 260° 7 kt METAR LFBO 241030Z AUTO 26007KT 240V300 9999 SCT023/// BKN041/// BKN080/// //////TCU 19/13 Q1015 NOSIG
12:00
M
18 °C 10 km+ 2.100 ft 250° 250° 3 kt METAR LFBO 241000Z AUTO 25003KT 210V300 9999 BKN021 BKN100 BKN140 18/13 Q1015 TEMPO SCT040TCU
11:30
V
18 °C 10 km+ 14.000 ft 270° 270° 3 kt METAR LFBO 240930Z AUTO 27003KT 200V320 9999 SCT018 SCT100 BKN140 18/14 Q1015 TEMPO SCT040TCU
11:00
V
17 °C 10 km+ - Var Var 3 kt METAR LFBO 240900Z AUTO VRB03KT 9999 SCT016 SCT021 17/13 Q1015 NOSIG
10:30
M
17 °C 10 km+ 1.400 ft 340° 340° 5 kt METAR LFBO 240830Z AUTO 34005KT 310V010 9999 BKN014 17/14 Q1015 BECMG SCT020 BKN045
10:00
M
17 °C 10 km+ 1.700 ft 330° 330° 6 kt METAR LFBO 240800Z AUTO 33006KT 290V350 9999 SCT010 BKN017 17/14 Q1015 NOSIG
09:30
M
16 °C 10 km+ 1.500 ft 300° 300° 6 kt METAR LFBO 240730Z AUTO 30006KT 9999 FEW010 BKN015 16/14 Q1015 NOSIG
09:00
M
16 °C 10 km+ 1.500 ft 290° 290° 5 kt METAR LFBO 240700Z AUTO 29005KT 9999 SCT010 BKN015 BKN028 16/14 Q1015 TEMPO BKN012
08:30
M
16 °C 10 km+ 1.300 ft 250° 250° 4 kt METAR LFBO 240630Z AUTO 25004KT 220V290 9999 BKN013 BKN028 BKN060 16/14 Q1015 BECMG SCT020 BKN045
08:00
M
16 °C 10 km+ 1.300 ft 230° 230° 5 kt METAR LFBO 240600Z AUTO 23005KT 9999 BKN013 BKN021 OVC027 16/14 Q1015 BECMG SCT020 BKN045
07:30
M
16 °C 10 km+ 2.000 ft 230° 230° 4 kt METAR LFBO 240530Z AUTO 23004KT 190V250 9999 BKN020 BKN025 OVC031 16/14 Q1015 NOSIG
07:00
M
16 °C 10 km+ 2.900 ft 230° 230° 4 kt METAR LFBO 240500Z AUTO 23004KT 180V260 9999 FEW016 BKN029 OVC038 16/14 Q1015 TEMPO BKN005
06:30
V
16 °C 10 km+ 4.200 ft 260° 260° 4 kt METAR LFBO 240430Z AUTO 26004KT 230V290 9999 FEW019 OVC042 16/14 Q1015 TEMPO BKN005
06:00
V
16 °C 10 km+ 4.400 ft 270° 270° 4 kt METAR LFBO 240400Z AUTO 27004KT 9999 FEW018 OVC044 16/14 Q1015 TEMPO BKN005
05:30
V
16 °C 10 km+ 4.300 ft 260° 260° 5 kt METAR LFBO 240330Z AUTO 26005KT 9999 FEW023 OVC043 16/14 Q1015 TEMPO BKN005
05:00
M
16 °C 10 km+ 2.900 ft 260° 260° 6 kt METAR LFBO 240300Z AUTO 26006KT 9999 FEW024 BKN029 OVC036 16/14 Q1015 TEMPO BKN005
04:30
V
16 °C 10 km+ 3.500 ft 260° 260° 9 kt METAR LFBO 240230Z AUTO 26009KT 9999 FEW024 SCT030 BKN035 16/14 Q1015 TEMPO BKN005
04:00
V
16 °C 10 km+ 3.400 ft 240° 240° 6 kt METAR LFBO 240200Z AUTO 24006KT 9999 FEW025 BKN034 BKN041 16/15 Q1015 TEMPO BKN005
03:30
V
16 °C 10 km+ 3.400 ft 230° 230° 4 kt METAR LFBO 240130Z AUTO 23004KT 9999 FEW023 BKN034 BKN046 16/15 Q1016 TEMPO BKN005
03:00
V
16 °C 10 km+ 5.600 ft 210° 210° 4 kt METAR LFBO 240100Z AUTO 21004KT 180V240 9999 SCT048 OVC056 16/15 Q1016 TEMPO BKN005
02:30
V
16 °C 10 km+ 4.700 ft 210° 210° 4 kt METAR LFBO 240030Z AUTO 21004KT 180V240 9999 FEW007 SCT032 BKN047 16/15 Q1016 TEMPO BKN005
02:00
V
16 °C 10 km+ 3.000 ft 260° 260° 6 kt METAR LFBO 240000Z AUTO 26006KT 9999 FEW006 SCT024 BKN030 16/15 Q1016 TEMPO BKN005
01:30
M
16 °C 10 km+ 2.500 ft 290° 290° 5 kt METAR LFBO 232330Z AUTO 29005KT 9999 FEW007 BKN025 OVC060 16/15 Q1016 TEMPO 4000 RA BKN008
01:00
M
16 °C 10 km+ 1.300 ft 280° 280° 6 kt METAR LFBO 232300Z AUTO 28006KT 9999 FEW005 BKN013 BKN019 16/15 Q1017 TEMPO 4000 RA BKN008
00:30
M
16 °C 5 km 2.000 ft 290° 290° 7 kt METAR LFBO 232230Z AUTO 29007KT 5000 -DZ BR SCT006 SCT014 BKN020 16/15 Q1017 TEMPO RA BKN008
00:00
M
16 °C 10 km+ 1.200 ft 280° 280° 3 kt METAR LFBO 232200Z AUTO 28003KT 230V300 9999 SCT008 BKN012 OVC030 16/15 Q1017 TEMPO 4000 RA BKN008

23 septembre 2022

Temps Code Temps Temp. Vue Base cloud Vent METAR/SPECI
23:30
I
16 °C 10 km+ 800 ft Var Var 2 kt METAR LFBO 232130Z AUTO VRB02KT 9999 -RA BKN008 BKN012 BKN018 16/15 Q1018 TEMPO 4000 RA
23:00
V
16 °C 10 km+ 3.300 ft Var Var 2 kt METAR LFBO 232100Z AUTO VRB02KT 9999 -RA FEW011/// BKN033/// BKN045/// ///CB 16/15 Q1017 TEMPO 4000 RA BKN008
22:30
V
16 °C 10 km+ 3.600 ft Var Var 2 kt METAR LFBO 232030Z AUTO VRB02KT 9999 -RA FEW011/// BKN036/// BKN070/// //////CB 16/15 Q1017 TEMPO 4000 RA BKN008
22:00
I
16 °C 3,9 km 2.600 ft 360° 360° 6 kt METAR LFBO 232000Z AUTO 36006KT 320V060 3900 RA BR FEW009/// BKN026/// BKN033/// //////CB 16/15 Q1017 TEMPO BKN008
21:30
I
16 °C 4,6 km 2.800 ft 350° 350° 11 kt METAR LFBO 231930Z AUTO 35011KT 4600 RA BR FEW009/// BKN028/// BKN038/// //////CB 16/15 Q1017 TEMPO BKN008 BECMG 28008KT
21:00
V
17 °C 9 km 3.500 ft 340° 340° 12 kt METAR LFBO 231900Z AUTO 34012KT 9000 RA VCTS FEW008/// OVC035/// //////CB 17/16 Q1016 TEMPO 4000 RA BKN008 BECMG 28008KT
20:30
V
18 °C 10 km+ 3.300 ft 360° 360° 9 kt METAR LFBO 231830Z AUTO 36009KT 330V040 9999 SCT009/// SCT024/// OVC033/// //////CB 18/16 Q1016 TEMPO 31015G25KT 4000 RA BKN008
20:00
V
18 °C 10 km+ 3.000 ft 340° 340° 11 kt METAR LFBO 231800Z AUTO 34011KT 9999 -RA FEW008/// SCT019/// BKN030/// ///CB 18/16 Q1016 TEMPO 31015G25KT 2000 TSRA
19:30
V
21 °C 10 km+ 3.400 ft 340° 340° 9 - 20 kt METAR LFBO 231730Z AUTO 34009G20KT 270V040 9999 VCTS FEW018/// BKN034/// BKN058/// ///CB 21/14 Q1016 TEMPO 2000 TSRA
19:00
V
22 °C 10 km+ 4.200 ft 140° 140° 3 kt METAR LFBO 231700Z AUTO 14003KT 100V250 9999 FEW007/// SCT035/// BKN042/// ///CB 22/15 Q1015 TEMPO 31015G25KT 2000 TSRA
18:30
V
23 °C 10 km+ 5.800 ft 150° 150° 9 kt METAR LFBO 231630Z AUTO 15009KT 120V180 9999 SCT035 BKN058 BKN100 23/15 Q1015 TEMPO 31015G25KT 2000 TSRA SCT050CB
18:00
V
24 °C 10 km+ - 140° 140° 9 kt METAR LFBO 231600Z AUTO 14009KT 9999 //////CB 24/15 Q1015 TEMPO 31015G25KT 2000 TSRA
17:30
V
24 °C 10 km+ - 140° 140° 10 kt METAR LFBO 231530Z AUTO 14010KT 130V190 9999 ///CB 24/15 Q1015 TEMPO 31015G25KT 2000 TSRA
17:00
V
24 °C 10 km+ - 150° 150° 10 kt METAR LFBO 231500Z AUTO 15010KT 9999 ///CB 24/14 Q1015 TEMPO 31015G25KT 2000 TSRA
Données plus anciennes

Nous et des tiers suivons ton comportement sur Internet sur notre site Web à l'aide de cookies. Si tu continues, nous supposons que tu acceptes notre politique en matière de cookies. Apprendre plus